Overview Statistics Trail Chart Weather Telemetry Raw packets
 

This is the latest recevied weather packets stored in our database for station/object KQ4PPF. If no packets are shown the sender has not sent any weather packets the latest 10 day(s).

<< 104 105 106 107 108 109 >>
Time Temp. Humidity Pressure Rain* Wind** Luminosity Snow
1787784782 27.22° C 78% 1014 hPa 0 mm - 13 W/m² -
1787784481 27.22° C 79% 1014 hPa 0 mm - 15 W/m² -
1787784176 27.22° C 78% 1014 hPa 0 mm - 16 W/m² -
1787783876 27.22° C 79% 1014.3 hPa 0 mm - 16 W/m² -
1787783568 27.22° C 77% 1014.2 hPa 0 mm - 15 W/m² -
1787783262 27.78° C 76% 1014.4 hPa 0 mm - 12 W/m² -
1787782957 27.78° C 74% 1014.3 hPa 0 mm - 16 W/m² -
1787782656 27.78° C 75% 1014.4 hPa 0 mm - 20 W/m² -
1787782352 27.78° C 75% 1014.3 hPa 0 mm - 23 W/m² -
1787782047 27.78° C 75% 1014.4 hPa 0 mm - 23 W/m² -
1787781743 27.78° C 74% 1014.3 hPa 0 mm - 23 W/m² -
1787781440 27.78° C 73% 1014.5 hPa 0 mm - 23 W/m² -
1787781140 28.33° C 72% 1014.4 hPa 0 mm - 21 W/m² -
1787780839 28.33° C 71% 1014.5 hPa 0 mm - 21 W/m² -
1787780538 28.33° C 71% 1014.5 hPa 0 mm - 24 W/m² -
1787780234 28.89° C 70% 1014.4 hPa 0 mm - 35 W/m² -
1787779929 28.89° C 70% 1014.6 hPa 0 mm - 42 W/m² -
1787779623 28.89° C 70% 1014.5 hPa 0 mm - 49 W/m² -
1787779317 28.89° C 73% 1014.6 hPa 0 mm - 55 W/m² -
1787779011 28.89° C 71% 1014.6 hPa 0 mm - 60 W/m² -
1787778707 28.89° C 72% 1014.6 hPa 0 mm - 62 W/m² -
1787778404 28.89° C 70% 1014.5 hPa 0 mm - 62 W/m² -
1787778099 28.89° C 69% 1014.6 hPa 0 mm - 65 W/m² -
1787777798 28.89° C 70% 1014.5 hPa 0 mm - 66 W/m² -
1787777495 28.89° C 68% 1014.2 hPa 0 mm - 68 W/m² -

* Rain latest hour (hover to see other rain measurements)
** Current wind speed in m/s (hover to see current wind gust speed)